N3KJE Weather Reports


time (UTC)temp
C
wind
direction
speed
KPH
gust
KPH
rain 1hr
cm
rain 24hr
cm
rain mn
cm
humidity
%
barometer
mb
20260507010504 20 286 1.6 1.6 0.00 0.00 0.00 80 1008.8
20260507005005 21 286 0.0 1.6 0.00 0.00 0.00 78 1008.5
20260507004504 21 286 1.6 1.6 0.00 0.00 0.00 78 1008.4
20260507003004 21 265 1.6 4.8 0.00 0.00 0.00 78 1008.5
20260507002504 21 188 0.0 4.8 0.00 0.00 0.00 78 1008.2
20260507001505 21 110 0.0 1.6 0.00 0.00 0.00 78 1008.1
20260507001005 21 110 0.0 1.6 0.00 0.00 0.00 77 1008.2
20260506235505 21 110 0.0 3.2 0.00 0.00 0.00 75 1008.1
20260506235005 21 107 0.0 1.6 0.00 0.00 0.00 74 1008.0
20260506234504 22 149 1.6 3.2 0.00 0.00 0.00 74 1008.0
20260506234004 22 173 1.6 4.8 0.00 0.00 0.00 74 1008.0
20260506232505 22 286 1.6 4.8 0.00 0.00 0.00 73 1007.9
20260506231504 22 245 3.2 8.0 0.00 0.00 0.00 73 1008.0
20260506230005 22 170 1.6 8.0 0.00 0.00 0.00 72 1008.0
20260506224504 22 129 1.6 8.0 0.00 0.00 0.00 72 1007.9
20260506223505 22 220 4.8 11.3 0.00 0.00 0.00 72 1007.9
20260506221504 22 272 3.2 12.9 0.00 0.00 0.00 71 1007.9
20260506221004 22 309 1.6 8.0 0.00 0.00 0.00 72 1007.9
20260506220505 22 221 3.2 9.7 0.00 0.00 0.00 72 1007.8
20260506215505 22 226 3.2 12.9 0.00 0.00 0.00 72 1007.8
20260506215005 22 140 4.8 16.1 0.00 0.00 0.00 72 1007.7
20260506214505 22 196 6.4 24.1 0.00 0.00 0.00 72 1007.8
20260506213504 22 207 6.4 14.5 0.00 0.00 0.00 73 1007.9
20260506211505 22 265 4.8 12.9 0.00 0.00 0.00 73 1007.6
20260506211005 22 183 4.8 16.1 0.00 0.00 0.00 73 1007.5
20260506210004 22 138 4.8 25.7 0.00 0.00 0.00 73 1007.6
20260506203505 22 189 4.8 16.1 0.00 0.00 0.00 72 1007.6
20260506203005 22 246 6.4 16.1 0.00 0.00 0.00 71 1007.5
20260506202504 22 211 4.8 19.3 0.00 0.00 0.00 71 1007.6
20260506201504 22 190 6.4 20.9 0.00 0.00 0.00 71 1007.8
20260506195505 23 248 8.0 16.1 0.00 0.00 0.00 71 1008.2
20260506194505 22 242 6.4 19.3 0.00 0.00 0.00 71 1007.7
20260506194005 22 204 6.4 19.3 0.00 0.00 0.00 70 1007.7
20260506193505 23 195 4.8 19.3 0.00 0.00 0.00 70 1007.8
20260506192004 22 228 8.0 20.9 0.00 0.00 0.00 71 1008.3
20260506190505 22 165 8.0 19.3 0.00 0.00 0.00 71 1008.6
20260506190005 22 148 4.8 19.3 0.00 0.00 0.00 72 1008.7
20260506185504 22 201 8.0 20.9 0.00 0.00 0.00 72 1008.6
20260506184504 22 165 4.8 20.9 0.00 0.00 0.00 73 1008.8
20260506184004 22 190 3.2 12.9 0.00 0.00 0.00 73 1008.9
20260506183504 22 222 6.4 16.1 0.00 0.00 0.00 74 1008.9
20260506181504 21 181 4.8 19.3 0.00 0.00 0.00 76 1009.1
20260506180504 21 146 8.0 19.3 0.00 0.00 0.00 76 1009.4
20260506180005 21 224 6.4 14.5 0.00 0.00 0.00 77 1009.3
20260506175004 21 209 4.8 16.1 0.00 0.00 0.00 77 1009.1
20260506165504 21 171 9.7 19.3 0.00 0.00 0.00 73 1010.2
20260506164504 21 206 6.4 14.5 0.00 0.00 0.00 73 1010.3
20260506164004 21 209 6.4 27.4 0.00 0.00 0.00 73 1010.6
20260506163505 22 187 9.7 22.5 0.00 0.00 0.00 69 1010.5
20260506162505 23 164 4.8 24.1 0.00 0.00 0.00 64 1010.5
20260506161005 24 157 8.0 24.1 0.00 0.00 0.00 61 1010.4
20260506160504 24 181 8.0 19.3 0.00 0.00 0.00 61 1010.4
20260506154504 23 212 8.0 22.5 0.00 0.00 0.00 63 1010.6
20260506152505 23 214 4.8 12.9 0.00 0.00 0.00 63 1010.8
20260506152005 23 213 4.8 16.1 0.00 0.00 0.00 63 1010.7
20260506151504 23 268 4.8 11.3 0.00 0.00 0.00 64 1010.7
20260506151004 23 138 4.8 14.5 0.00 0.00 0.00 63 1010.8
20260506150504 23 91 4.8 12.9 0.00 0.00 0.00 64 1010.7
20260506145504 23 67 3.2 20.9 0.00 0.00 0.00 63 1010.8
20260506143504 23 161 8.0 20.9 0.00 0.00 0.00 62 1010.8
20260506141504 23 306 6.4 16.1 0.00 0.00 0.00 62 1010.9
20260506141004 23 174 8.0 22.5 0.00 0.00 0.00 62 1010.9
20260506140504 23 190 6.4 20.9 0.00 0.00 0.00 63 1010.7
20260506140005 23 145 6.4 19.3 0.00 0.00 0.00 63 1010.7
20260506135504 22 104 8.0 16.1 0.00 0.00 0.00 64 1010.8
20260506132005 21 136 4.8 19.3 0.00 0.00 0.00 69 1011.1
20260506131504 21 182 6.4 12.9 0.00 0.00 0.00 69 1011.1
20260506131004 21 193 4.8 14.5 0.00 0.00 0.00 70 1011.1
20260506130504 21 216 6.4 20.9 0.00 0.00 0.00 71 1011.2
20260506124004 20 171 3.2 12.9 0.00 0.00 0.00 75 1011.5
20260506123504 20 218 3.2 11.3 0.00 0.00 0.00 75 1011.5
20260506122004 20 196 4.8 12.9 0.00 0.00 0.00 73 1011.3
20260506120005 19 113 4.8 11.3 0.00 0.00 0.00 77 1011.3
20260506115505 18 126 3.2 16.1 0.00 0.00 0.00 78 1011.3
20260506115004 18 161 4.8 11.3 0.00 0.00 0.00 78 1011.3
20260506114504 18 155 3.2 12.9 0.00 0.00 0.00 78 1011.4
20260506114004 18 163 3.2 11.3 0.00 0.00 0.00 78 1011.3
20260506112504 18 161 3.2 9.7 0.00 0.00 0.00 77 1011.2
20260506111504 18 175 4.8 16.1 0.00 0.00 0.00 78 1011.3
20260506111004 18 138 3.2 11.3 0.00 0.00 0.00 79 1011.3
20260506110504 18 124 3.2 11.3 0.00 0.00 0.00 80 1011.3
20260506110004 17 150 3.2 9.7 0.00 0.00 0.00 80 1011.3
20260506104004 17 162 3.2 11.3 0.00 0.00 0.00 82 1011.5
20260506103005 17 112 3.2 9.7 0.00 0.00 0.00 82 1011.6
20260506102504 17 211 4.8 12.9 0.00 0.00 0.00 82 1011.5
20260506102004 17 142 3.2 11.3 0.00 0.00 0.00 82 1011.6
20260506101004 17 124 1.6 4.8 0.00 0.00 0.00 83 1011.3
20260506100504 17 183 3.2 12.9 0.00 0.00 0.00 83 1011.3
20260506094504 17 154 1.6 4.8 0.00 0.00 0.00 82 1011.4
20260506093004 17 141 1.6 8.0 0.00 0.00 0.00 83 1011.3
20260506092504 17 186 4.8 14.5 0.00 0.00 0.00 83 1011.3
20260506091504 17 126 1.6 4.8 0.00 0.00 0.00 82 1011.2
20260506091004 17 163 3.2 8.0 0.00 0.00 0.00 82 1011.3
20260506090505 17 156 1.6 8.0 0.00 0.00 0.00 82 1011.3
20260506090004 17 143 4.8 12.9 0.00 0.00 0.00 82 1011.2
20260506085504 17 170 3.2 8.0 0.00 0.00 0.00 81 1011.4
20260506085004 17 121 3.2 9.7 0.00 0.00 0.00 81 1011.5
20260506083004 17 196 3.2 8.0 0.00 0.00 0.00 81 1011.5
20260506082504 17 173 4.8 9.7 0.00 0.00 0.00 81 1011.5
20260506082004 17 186 3.2 14.5 0.00 0.00 0.00 81 1011.6
20260506081005 17 210 4.8 9.7 0.00 0.00 0.00 82 1011.6
20260506080505 17 161 3.2 8.0 0.00 0.00 0.00 82 1011.6
20260506062505 18 108 1.6 4.8 0.00 0.00 0.00 80 1011.7
20260506051004 18 144 4.8 12.9 0.00 0.00 0.00 77 1012.0
20260506050505 18 185 4.8 11.3 0.00 0.00 0.00 77 1012.1
20260506045005 19 194 4.8 11.3 0.00 0.00 0.00 76 1012.2
20260506044504 19 147 4.8 19.3 0.00 0.00 0.00 76 1012.1
20260506043504 19 94 4.8 11.3 0.00 0.00 0.00 76 1012.2
20260506041504 19 155 8.0 20.9 0.00 0.05 0.00 76 1012.1
20260506041005 19 145 3.2 8.0 0.00 0.05 0.00 76 1012.1
20260506040505 19 153 6.4 16.1 0.00 0.10 0.00 76 1012.1
20260506040005 19 156 4.8 22.5 0.00 0.10 0.00 75 1012.1
20260506034504 19 175 4.8 12.9 0.00 0.10 0.10 75 1012.1
20260506032504 20 154 8.0 22.5 0.00 0.10 0.10 74 1012.1
20260506031004 20 163 4.8 16.1 0.00 0.10 0.10 74 1012.1
20260506030504 20 156 4.8 12.9 0.00 0.10 0.10 74 1012.1
20260506030004 20 195 3.2 12.9 0.00 0.10 0.10 74 1012.1
20260506025505 20 170 6.4 19.3 0.00 0.10 0.10 74 1012.1
20260506024504 20 198 3.2 14.5 0.00 0.10 0.10 74 1012.1
20260506024004 20 136 3.2 11.3 0.00 0.10 0.10 73 1012.2
20260506023005 20 179 3.2 19.3 0.00 0.10 0.10 73 1012.2
20260506022504 20 131 4.8 14.5 0.00 0.10 0.10 72 1012.1
20260506022004 20 170 4.8 16.1 0.00 0.10 0.10 72 1012.1
20260506021004 20 149 6.4 20.9 0.00 0.10 0.10 72 1012.1
20260506020504 20 127 6.4 14.5 0.00 0.10 0.10 72 1012.2
20260506014004 20 147 6.4 14.5 0.00 0.10 0.10 71 1012.0
20260506013504 20 153 4.8 19.3 0.00 0.10 0.10 71 1011.9
20260506012505 20 162 4.8 16.1 0.00 0.10 0.10 71 1011.8
20260506012004 20 139 8.0 19.3 0.00 0.10 0.10 71 1011.8
20260506011004 20 97 3.2 14.5 0.00 0.10 0.10 72 1011.7